Location: Hannover
(52.3723°N, 9.7339°E)
Time: 14:48:03
(UTC+02:00)

ISS - Pass Details

Date: 29 March 2017
Orbit: 399 x 409 km, 51.6° (Epoch: 30 March)

Event Time Altitude Azimuth Distance (km) Brightness Sun altitude
Rises 21:40:27 0° 233° (SW) 2,308 0.3 -16.7°
Reaches altitude 10° 21:42:36 10° 224° (SW) 1,453 -0.9 -17.0°
Enters shadow 21:45:04 34° 182° (S) 689 -3.0 -17.3°
